Miscellaneous Local Product
Issued by NWS North Platte, NE

Home | Current Version | Previous Version | Text Only | Print | Product List | Glossary On
Versions: 1 2 3 4 5 6 7 8 9 10 11 12 13 14 15 16 17 18 19 20 21 22 23 24 25 26 27 28 29 30 31 32 33 34 35 36 37 38 39 40 41 42 43 44 45 46 47 48 49 50
000
AXUS43 KLBF 250510
MISLBF


WESTERN AND NORTH CENTRAL NEBRASKA HOURLY WEATHER ROUNDUP
NATIONAL WEATHER SERVICE NORTH PLATTE NE
1200 AM CDT TUE JUL 25 2017

NOTE: "FAIR" INDICATES FEW OR NO CLOUDS BELOW 12,000 FEET WITH NO
SIGNIFICANT WEATHER AND/OR OBSTRUCTIONS TO VISIBILITY.

NOTE: STATIONS NOT REPORTING VARIABLES SUCH AS SKY/WEATHER OR
PRESSURE ARE PROVIDED BY RAWS AND APRS NETWORKS AND ARE NOT UNDER
NATIONAL WEATHER SERVICE QUALITY CONTROL.

...OBSERVATIONS IN AND NEAR THE EASTERN PANHANDLE OF NEBRASKA...

CITY           SKY/WX    TMP DP  RH WIND       PRES   REMARKS
PINE RIDGE     CLEAR     77  55  46 SW7       29.90R
GORDON         FAIR      68  58  69 CALM      29.93R
CHADRON        CLEAR     78  52  40 CALM      29.87S
ALLIANCE       CLEAR     79  53  40 S18G25    29.94R
SIDNEY         PTCLDY    78  56  46 S20G29    30.02R
CRESCENT LAKE    N/A     78  58  50 S10G25      N/A
$$

...OBSERVATIONS IN NORTHERN NEBRASKA AND FAR SOUTHERN SOUTH DAKOTA...

CITY           SKY/WX    TMP DP  RH WIND       PRES   REMARKS
WINNER         FAIR      80  66  62 S29G40    29.84R
VALENTINE      CLEAR     83  62  49 SE15      29.91R
THEDFORD       CLEAR     82  54  38 S10       29.95R
AINSWORTH      CLEAR     80  69  69 SE22      29.93S
O`NEILL        LGT RAIN  77  71  80 E10       30.00S
ORD            PTCLDY    79  68  69 SE10      29.94R
BROKEN BOW     CLOUDY    79  67  66 S14       29.95S
VALENTINE NWR    N/A     81  60  48 S12G20      N/A
HALSEY           N/A     83  55  37 SE9G16      N/A
BUTTE            N/A     78  59  52 SE17G30     N/A
CHAMBERS         N/A     78  70  77 E6          N/A
EWING            N/A     77  69  77 CALM        N/A
$$

...OBSERVATIONS IN SOUTHWEST NEBRASKA AND FAR NORTHEAST COLORADO...

CITY           SKY/WX    TMP DP  RH WIND       PRES   REMARKS
HOLYOKE        LGT RAIN  82  61  47 SE10      30.04S
IMPERIAL       MOCLDY    83  58  42 S15G24    29.98F
OGALLALA       CLOUDY    82  58  43 S12G18    29.94S
NORTH PLATTE   CLEAR     83  55  38 S7        29.95R
MCCOOK         CLOUDY    84  55  36 S17G24    29.95F
LEXINGTON      CLOUDY    77  59  53 S9        29.97R
STAPLETON        N/A     77  56  47 CALM        N/A
GOTHENBURG       N/A     80  53  38 E3          N/A
CALLAWAY         N/A     75  66  75 S10         N/A
$$

...OBSERVATIONS IN CENTRAL LINCOLN COUNTY AREA...

CITY           SKY/WX    TMP DP  RH WIND       PRES   REMARKS
N.P. AIRPORT   CLEAR     83  55  38 S7        29.95R
N.P. DOWNTOWN    N/A     84  60  43 CALM        N/A
N.P. HILLCREST   N/A     81  58  44 S7          N/A
$$

...SOME OBSERVATIONS FROM AROUND THE REGION...

CITY           SKY/WX    TMP DP  RH WIND       PRES   REMARKS
DENVER         CLOUDY    74  46  36 S13       30.06S
LIMON          CLEAR     71  56  58 SE12      30.12R
ASPEN          CLOUDY    65  48  54 S5        30.32R
LARAMIE        CLOUDY    64  41  42 SW7       30.21R
CASPER         CLOUDY    72  35  25 SW6       30.00S
CHEYENNE       CLOUDY    67  44  43 SW7       30.12R
SCOTTSBLUFF    CLEAR     75  55  49 E6        29.95R
GRAND ISLAND   CLEAR     77  72  84 SE13      29.98R
OMAHA          CLEAR     77  65  66 SE10      29.99S
SIOUX FALLS    CLOUDY    74  66  76 S15G26    29.92S
PIERRE         CLEAR     75  62  64 E5        29.80R
RAPID CITY     CLEAR     77  55  46 SE5       29.87R
BISMARCK       CLEAR     73  67  81 S10       29.83R
KANSAS CITY    CLEAR     75  68  78 SE7       30.03R
HILL CITY      PTCLDY    80  55  42 S7        30.00R
WICHITA        CLEAR     79  68  69 S8        30.01R
DODGE CITY     CLEAR     77  58  51 SE12      30.03R
OKLAHOMA CITY  PTCLDY    76  69  79 S7        30.01R
DALLAS         CLEAR     82  73  74 SE8       29.98R
AMARILLO       CLEAR     75  65  70 S10       30.10S
$$




USA.gov is the U.S. government's official web portal to all federal, state and local government web resources and services.